EW7074 Weather Reports


time (UTC)temp
C
wind
direction
speed
KPH
gust
KPH
rain 1hr
cm
rain 24hr
cm
rain mn
cm
humidity
%
barometer
mb
20260507170352 32 60 3.2 20.9 0.00 0.00 0.00 47 1001.0
20260507165851 32 328 4.8 24.1 0.00 0.00 0.00 47 1001.1
20260507165345 32 353 4.8 24.1 0.00 0.00 0.00 46 1001.2
20260507164327 32 279 9.7 25.7 0.00 0.00 0.00 46 1001.5
20260507163815 32 342 9.7 27.4 0.00 0.00 0.00 45 1001.6
20260507163300 32 303 8.0 27.4 0.00 0.00 0.00 45 1001.4
20260507162750 32 345 6.4 22.5 0.00 0.00 0.00 45 1001.6
20260507162239 32 38 8.0 33.8 0.00 0.00 0.00 45 1001.4
20260507161722 32 12 11.3 37.0 0.00 0.00 0.00 46 1001.7
20260507161208 32 337 8.0 29.0 0.00 0.00 0.00 46 1001.8
20260507160927 32 303 6.4 32.2 0.00 0.00 0.00 47 1002.0
20260507160138 32 329 8.0 32.2 0.00 0.00 0.00 47 1001.9
20260507155632 33 262 4.8 29.0 0.00 0.00 0.00 48 1001.9
20260507155128 32 339 3.2 19.3 0.00 0.00 0.00 49 1001.8
20260507154630 32 307 3.2 16.1 0.00 0.00 0.00 49 1001.9
20260507154128 31 312 4.8 22.5 0.00 0.00 0.00 51 1002.2
20260507153628 31 338 6.4 22.5 0.00 0.00 0.00 50 1002.3
20260507152622 32 317 4.8 27.4 0.00 0.00 0.00 51 1002.4
20260507152123 31 309 6.4 29.0 0.00 0.00 0.00 51 1002.6
20260507151623 31 328 4.8 29.0 0.00 0.00 0.00 52 1002.8
20260507151123 31 38 3.2 22.5 0.00 0.00 0.00 51 1002.8
20260507150621 31 8 3.2 19.3 0.00 0.00 0.00 52 1002.8
20260507150118 31 332 3.2 19.3 0.00 0.00 0.00 53 1003.0
20260507145618 31 262 6.4 27.4 0.00 0.00 0.00 53 1003.3
20260507145114 31 12 4.8 27.4 0.00 0.00 0.00 53 1003.4
20260507144613 31 351 3.2 19.3 0.00 0.00 0.00 53 1003.6
20260507144344 31 351 3.2 19.3 0.00 0.00 0.00 53 1003.7
20260507143612 31 2 3.2 16.1 0.00 0.00 0.00 54 1003.6
20260507143112 31 325 4.8 20.9 0.00 0.00 0.00 54 1004.0
20260507142619 30 333 3.2 14.5 0.00 0.00 0.00 55 1004.3
20260507142612 30 18 4.8 20.9 0.00 0.00 0.00 53 1004.0
20260507141839 30 350 3.2 19.3 0.00 0.00 0.00 55 1004.6
20260507141340 30 310 4.8 29.0 0.00 0.00 0.00 55 1004.6
20260507140839 30 18 3.2 29.0 0.00 0.00 0.00 56 1004.9
20260507140108 30 302 3.2 20.9 0.00 0.00 0.00 56 1004.9
20260507135610 30 338 3.2 17.7 0.00 0.00 0.00 56 1005.2
20260507135108 30 340 4.8 19.3 0.00 0.00 0.00 57 1005.2
20260507134108 29 316 4.8 19.3 0.00 0.00 0.00 57 1005.6
20260507133608 29 327 4.8 19.3 0.00 0.00 0.00 58 1005.7
20260507133108 29 349 3.2 33.8 0.00 0.00 0.00 59 1006.0
20260507132608 28 337 3.2 33.8 0.00 0.00 0.00 60 1006.0
20260507132338 28 348 3.2 12.9 0.00 0.00 0.00 60 1006.1
20260507131606 28 355 1.6 12.9 0.00 0.00 0.00 60 1006.1
20260507131338 28 343 3.2 12.9 0.00 0.00 0.00 60 1006.2
20260507130606 28 31 4.8 14.5 0.00 0.00 0.00 61 1006.3
20260507130106 28 20 3.2 14.5 0.00 0.00 0.00 62 1006.5
20260507125547 28 28 1.6 11.3 0.00 0.00 0.00 63 1006.5
20260507125046 27 33 3.2 19.3 0.00 0.00 0.00 63 1006.6
20260507124547 27 342 1.6 19.3 0.00 0.00 0.00 63 1006.7
20260507124047 27 7 3.2 17.7 0.00 0.00 0.00 63 1006.8
20260507123538 27 338 3.2 17.7 0.00 0.00 0.00 63 1007.0
20260507123033 27 355 1.6 14.5 0.00 0.00 0.00 63 1007.0
20260507122540 27 351 1.6 19.3 0.00 0.00 0.00 64 1007.1
20260507122533 27 343 3.2 19.3 0.00 0.00 0.00 64 1007.0
20260507121530 27 346 0.0 4.8 0.00 0.00 0.00 64 1007.0
20260507121028 27 28 0.0 4.8 0.00 0.00 0.00 65 1006.9
20260507120517 27 9 0.0 3.2 0.00 0.00 0.00 66 1006.9
20260507120017 27 9 0.0 3.2 0.00 0.00 0.00 65 1006.9
20260507115514 27 52 0.0 3.2 0.00 0.00 0.00 65 1007.1
20260507115010 27 52 0.0 3.2 0.00 0.00 0.00 66 1007.0
20260507114509 27 52 0.0 3.2 0.00 0.00 0.00 66 1007.0
20260507114002 27 52 0.0 8.0 0.00 0.00 0.00 66 1007.1
20260507112943 27 42 0.0 3.2 0.00 0.00 0.00 66 1007.0
20260507112438 27 42 0.0 3.2 0.00 0.00 0.00 66 1006.9
20260507111934 27 233 0.0 1.6 0.00 0.00 0.00 66 1006.8
20260507111654 27 124 1.6 11.3 0.00 0.00 0.00 65 1006.9
20260507110919 27 353 1.6 12.9 0.00 0.00 0.00 65 1006.7
20260507110409 27 58 1.6 12.9 0.00 0.00 0.00 65 1006.5
20260507105902 27 37 3.2 16.1 0.00 0.00 0.00 65 1006.4
20260507105404 27 33 3.2 16.1 0.00 0.00 0.00 65 1006.4
20260507104857 27 56 1.6 8.0 0.00 0.00 0.00 67 1006.2
20260507104115 26 326 1.6 6.4 0.00 0.00 0.00 67 1006.1
20260507103608 26 20 1.6 14.5 0.00 0.00 0.00 67 1006.3
20260507102824 26 356 1.6 14.5 0.00 0.00 0.00 68 1006.3
20260507101814 26 327 1.6 12.9 0.00 0.00 0.00 68 1006.4
20260507101312 26 3 3.2 19.3 0.00 0.00 0.00 68 1006.3
20260507100810 26 49 3.2 19.3 0.00 0.00 0.00 68 1006.3
20260507100542 26 15 1.6 11.3 0.00 0.00 0.00 68 1006.4
20260507100042 26 2 1.6 11.3 0.00 0.00 0.00 68 1006.3
20260507095305 26 345 1.6 12.9 0.00 0.00 0.00 68 1006.3
20260507094752 26 303 1.6 12.9 0.00 0.00 0.00 68 1006.4
20260507094243 26 320 1.6 11.3 0.00 0.00 0.00 68 1006.5
20260507094004 26 324 1.6 11.3 0.00 0.00 0.00 68 1006.5
20260507093222 26 333 1.6 11.3 0.00 0.00 0.00 68 1006.6
20260507092700 26 320 0.0 6.4 0.00 0.00 0.00 68 1006.5
20260507092150 26 335 0.0 9.7 0.00 0.00 0.00 68 1006.5
20260507091640 26 333 1.6 9.7 0.00 0.00 0.00 68 1006.5
20260507091131 26 35 0.0 6.4 0.00 0.00 0.00 68 1006.4
20260507090852 26 356 0.0 6.4 0.00 0.00 0.00 69 1006.4
20260507090111 26 25 1.6 6.4 0.00 0.00 0.00 69 1006.3
20260507085552 26 25 1.6 6.4 0.00 0.00 0.00 69 1006.3
20260507085313 26 349 0.0 8.0 0.00 0.00 0.00 69 1006.2
20260507084532 26 345 1.6 11.3 0.00 0.00 0.00 69 1006.2
20260507084022 26 326 1.6 11.3 0.00 0.00 0.00 70 1006.2
20260507083512 26 347 0.0 8.0 0.00 0.00 0.00 70 1006.3
20260507083003 26 335 0.0 0.0 0.00 0.00 0.00 70 1006.4
20260507082451 26 6 0.0 0.0 0.00 0.00 0.00 70 1006.4
20260507081937 26 16 0.0 0.0 0.00 0.00 0.00 70 1006.4
20260507081427 26 16 0.0 0.0 0.00 0.00 0.00 70 1006.3
20260507080916 25 16 0.0 0.0 0.00 0.00 0.00 71 1006.3
20260507080905 25 24 0.0 0.0 0.00 0.00 0.00 71 1006.3
20260507075850 25 23 0.0 0.0 0.00 0.00 0.00 71 1006.5
20260507075340 25 24 0.0 4.8 0.00 0.00 0.00 72 1006.5
20260507074830 25 24 0.0 4.8 0.00 0.00 0.00 72 1006.5
20260507074322 25 38 1.6 4.8 0.00 0.00 0.00 72 1006.5
20260507073816 25 62 1.6 9.7 0.00 0.00 0.00 73 1006.6
20260507073314 25 33 0.0 9.7 0.00 0.00 0.00 74 1006.7
20260507072814 25 57 0.0 4.8 0.00 0.00 0.00 74 1006.8
20260507072313 25 57 0.0 6.4 0.00 0.00 0.00 75 1006.9
20260507071313 24 71 0.0 0.0 0.00 0.00 0.00 76 1007.0
20260507070812 24 235 0.0 0.0 0.00 0.00 0.00 77 1007.1
20260507070311 24 242 0.0 0.0 0.00 0.00 0.00 78 1007.1
20260507065811 24 246 0.0 0.0 0.00 0.00 0.00 78 1007.1
20260507065543 24 254 0.0 0.0 0.00 0.00 0.00 78 1007.3
20260507064812 24 254 0.0 0.0 0.00 0.00 0.00 78 1007.5
20260507064311 24 185 0.0 0.0 0.00 0.00 0.00 77 1007.5
20260507063812 24 185 0.0 0.0 0.00 0.00 0.00 77 1007.5
20260507063309 24 185 0.0 0.0 0.00 0.00 0.00 77 1007.6
20260507063038 25 185 0.0 0.0 0.00 0.00 0.00 76 1007.6
20260507062306 25 185 0.0 0.0 0.00 0.00 0.00 75 1007.8
20260507061804 25 166 0.0 0.0 0.00 0.00 0.00 74 1007.8
20260507061301 25 83 0.0 0.0 0.00 0.00 0.00 73 1007.7
20260507060801 25 68 0.0 3.2 0.00 0.00 0.00 73 1007.9
20260507060256 25 68 0.0 3.2 0.00 0.00 0.00 72 1007.9
20260507055754 26 68 1.6 6.4 0.00 0.00 0.00 72 1008.0
20260507055254 26 68 1.6 8.0 0.00 0.00 0.00 72 1008.1
20260507054752 26 70 3.2 8.0 0.00 0.00 0.00 72 1008.1
20260507054235 26 78 6.4 14.5 0.00 0.00 0.00 72 1008.2
20260507053736 25 68 4.8 14.5 0.00 0.00 0.00 73 1008.2
20260507053236 25 68 3.2 11.3 0.00 0.00 0.00 76 1008.4
20260507052742 23 47 3.2 17.7 0.00 0.00 0.00 81 1008.7
20260507052735 24 58 4.8 12.9 0.00 0.00 0.00 78 1008.5
20260507051735 23 81 1.6 17.7 0.00 0.00 0.00 83 1008.7
20260507051235 23 67 0.0 0.0 0.00 0.00 0.00 84 1008.8
20260507050736 23 67 0.0 0.0 0.00 0.00 0.00 84 1009.0
20260507050235 23 67 0.0 12.9 0.00 0.00 0.00 85 1009.1
20260507045735 22 66 0.0 12.9 0.00 0.00 0.00 85 1009.1
20260507045233 22 112 0.0 0.0 0.00 0.00 0.00 86 1009.1
20260507044733 22 114 0.0 0.0 0.00 0.00 0.00 87 1009.2
20260507044231 22 162 0.0 0.0 0.00 0.00 0.00 88 1009.3
20260507043729 22 164 0.0 0.0 0.00 0.00 0.00 88 1009.4
20260507043230 22 164 0.0 0.0 0.00 0.00 0.00 88 1009.4
20260507042718 22 164 0.0 0.0 0.00 0.00 0.00 88 1009.4
20260507042218 22 164 0.0 0.0 0.00 0.00 0.00 89 1009.6
20260507041718 22 164 0.0 0.0 0.00 0.00 0.00 89 1009.6
20260507041218 22 164 0.0 0.0 0.00 0.00 0.00 89 1009.8
20260507040947 22 164 0.0 0.0 0.00 0.00 0.00 89 1009.9
20260507040216 22 164 0.0 0.0 0.00 0.00 0.00 89 1009.9
20260507035716 22 164 0.0 0.0 0.00 0.00 0.00 89 1010.1
20260507035215 22 70 0.0 0.0 0.00 0.00 0.00 89 1010.0
20260507034945 22 69 0.0 0.0 0.00 0.00 0.00 89 1010.0
20260507033712 22 69 0.0 0.0 0.00 0.00 0.00 88 1010.1
20260507033210 22 69 0.0 0.0 0.00 0.00 0.00 88 1010.2
20260507032708 22 69 0.0 0.0 0.00 0.00 0.00 88 1010.3
20260507032206 22 69 0.0 0.0 0.00 0.00 0.00 88 1010.3
20260507031705 22 69 0.0 0.0 0.00 0.00 0.00 88 1010.3
20260507031203 22 69 0.0 0.0 0.00 0.00 0.00 88 1010.4
20260507030714 22 69 0.0 0.0 0.00 0.00 0.00 88 1010.5
20260507030212 22 69 0.0 0.0 0.00 0.00 0.00 88 1010.6
20260507025704 22 69 0.0 0.0 0.00 0.00 0.00 87 1010.7
20260507025201 22 69 0.0 0.0 0.00 0.00 0.00 87 1010.7
20260507024706 23 69 0.0 0.0 0.00 0.00 0.00 88 1010.7
20260507024659 23 69 0.0 0.0 0.00 0.00 0.00 88 1010.7
20260507023659 23 69 0.0 0.0 0.00 0.00 0.00 87 1010.8
20260507023157 23 69 0.0 0.0 0.00 0.00 0.00 87 1010.9
20260507022655 23 69 0.0 0.0 0.00 0.00 0.00 87 1010.9
20260507021652 23 69 0.0 0.0 0.00 0.00 0.00 86 1011.0
20260507021153 23 69 0.0 0.0 0.00 0.00 0.00 86 1011.0
20260507020653 23 69 0.0 0.0 0.00 0.00 0.00 85 1011.1
20260507020421 23 69 0.0 0.0 0.00 0.00 0.00 85 1011.1
20260507015648 23 69 0.0 0.0 0.00 0.00 0.00 85 1011.2
20260507015145 23 69 0.0 0.0 0.00 0.00 0.00 85 1011.1
20260507014145 23 69 0.0 0.0 0.00 0.00 0.00 84 1011.0
20260507013642 24 69 0.0 0.0 0.00 0.00 0.00 84 1011.0
20260507013414 24 69 0.0 0.0 0.00 0.00 0.00 84 1011.1
20260507012641 24 69 0.0 0.0 0.00 0.00 0.00 83 1011.2
20260507012139 24 69 0.0 0.0 0.00 0.00 0.00 83 1011.2
20260507011634 24 69 0.0 0.0 0.00 0.00 0.00 83 1011.3
20260507011140 25 69 0.0 0.0 0.00 0.00 0.00 83 1011.5
20260507011133 24 69 0.0 0.0 0.00 0.00 0.00 83 1011.4
20260507010132 25 69 0.0 0.0 0.00 0.00 0.00 82 1011.3
20260507005633 25 69 0.0 0.0 0.00 0.00 0.00 81 1011.3
20260507004633 25 69 0.0 0.0 0.00 0.00 0.00 80 1011.3
20260507004131 25 69 0.0 0.0 0.00 0.00 0.00 80 1011.3
20260507003630 25 69 0.0 0.0 0.00 0.00 0.00 79 1011.3
20260507003128 25 69 0.0 0.0 0.00 0.00 0.00 79 1011.3
20260507002628 25 69 0.0 0.0 0.00 0.00 0.00 78 1011.3
20260507002358 25 69 0.0 0.0 0.00 0.00 0.00 78 1011.3
20260507001623 26 69 0.0 0.0 0.00 0.00 0.00 78 1011.3
20260507001118 26 69 0.0 0.0 0.00 0.00 0.00 78 1011.3
20260507000613 26 69 0.0 0.0 0.00 0.00 0.00 77 1011.4
20260506235609 26 69 0.0 0.0 0.00 0.00 0.00 76 1011.4
20260506235115 26 67 0.0 0.0 0.00 0.00 0.00 75 1011.4
20260506235109 26 69 0.0 0.0 0.00 0.00 0.00 75 1011.4
20260506234105 26 67 0.0 0.0 0.00 0.00 0.00 75 1011.4
20260506233835 26 67 0.0 0.0 0.00 0.00 0.00 75 1011.5
20260506233054 26 68 0.0 8.0 0.00 0.00 0.00 74 1011.5
20260506232549 26 67 1.6 8.0 0.00 0.00 0.00 74 1011.4
20260506232042 26 80 1.6 8.0 0.00 0.00 0.00 74 1011.5
20260506231525 26 77 1.6 8.0 0.00 0.00 0.00 74 1011.4
20260506231021 26 74 1.6 8.0 0.00 0.00 0.00 75 1011.4
20260506230518 26 85 1.6 8.0 0.00 0.00 0.00 75 1011.3
20260506230016 26 80 3.2 9.7 0.00 0.00 0.00 75 1011.3
20260506225513 26 67 1.6 9.7 0.00 0.00 0.00 75 1011.2
20260506225012 26 80 1.6 8.0 0.00 0.00 0.00 75 1011.3
20260506224506 26 63 1.6 9.7 0.00 0.00 0.00 75 1011.3
20260506223954 26 70 1.6 9.7 0.00 0.00 0.00 75 1011.3
20260506222936 26 53 3.2 9.7 0.00 0.00 0.00 75 1011.2
20260506222426 26 54 3.2 9.7 0.00 0.00 0.00 75 1011.1
20260506221920 27 71 1.6 8.0 0.00 0.00 0.00 75 1011.2
20260506221907 27 61 1.6 8.0 0.00 0.00 0.00 75 1011.1
20260506220854 27 78 1.6 8.0 0.00 0.00 0.00 75 1011.1
20260506215829 27 74 0.0 9.7 0.00 0.00 0.00 76 1011.1
20260506215318 27 79 0.0 4.8 0.00 0.00 0.00 76 1011.1
20260506214809 27 69 1.6 8.0 0.00 0.00 0.00 76 1011.1
20260506214305 27 68 1.6 8.0 0.00 0.00 0.00 76 1011.0
20260506213753 27 69 0.0 8.0 0.00 0.00 0.00 75 1011.0
20260506213243 28 58 0.0 4.8 0.00 0.00 0.00 75 1011.1
20260506212732 28 62 0.0 4.8 0.00 0.00 0.00 74 1011.1
20260506212224 28 62 0.0 8.0 0.00 0.00 0.00 73 1011.0
20260506211713 28 58 1.6 8.0 0.00 0.00 0.00 73 1011.0
20260506211203 28 72 1.6 6.4 0.00 0.00 0.00 72 1011.0
20260506210651 28 73 1.6 6.4 0.00 0.00 0.00 71 1011.0
20260506210142 29 69 1.6 6.4 0.00 0.00 0.00 70 1011.1
20260506205632 29 72 0.0 6.4 0.00 0.00 0.00 69 1011.1
20260506205120 30 75 0.0 6.4 0.00 0.00 0.00 67 1011.1
20260506204611 30 62 0.0 4.8 0.00 0.00 0.00 66 1011.1
20260506204101 31 62 0.0 0.0 0.00 0.00 0.00 64 1011.1
20260506203544 31 62 0.0 0.0 0.00 0.00 0.00 63 1011.1
20260506203030 31 60 0.0 4.8 0.00 0.00 0.00 62 1011.1
20260506202515 31 62 0.0 4.8 0.00 0.00 0.00 60 1011.1
20260506202006 32 37 0.0 0.0 0.00 0.00 0.00 58 1011.1
20260506201453 32 37 0.0 0.0 0.00 0.00 0.00 57 1011.2
20260506200942 32 37 0.0 0.0 0.00 0.00 0.00 57 1011.2
20260506200433 32 37 0.0 0.0 0.00 0.00 0.00 56 1011.3
20260506195923 32 35 0.0 1.6 0.00 0.00 0.00 55 1011.4
20260506195412 33 35 0.0 1.6 0.00 0.00 0.00 55 1011.4
20260506194856 33 4 0.0 1.6 0.00 0.00 0.00 55 1011.4
20260506194617 33 12 0.0 0.0 0.00 0.00 0.00 55 1011.4
20260506193832 33 12 0.0 1.6 0.00 0.00 0.00 55 1011.5
20260506193103 33 14 0.0 1.6 0.00 0.00 0.00 55 1011.5
20260506192601 33 14 0.0 1.6 0.00 0.00 0.00 55 1011.5
20260506191827 33 353 0.0 1.6 0.00 0.00 0.00 55 1011.5
20260506191323 33 358 0.0 1.6 0.00 0.00 0.00 56 1011.5
20260506190324 33 14 0.0 1.6 0.00 0.00 0.00 56 1011.5
20260506185824 33 338 0.0 1.6 0.00 0.00 0.00 56 1011.6
20260506185322 32 339 0.0 3.2 0.00 0.00 0.00 56 1011.6
20260506184818 32 13 0.0 3.2 0.00 0.00 0.00 56 1011.6
20260506184318 32 37 0.0 6.4 0.00 0.00 0.00 56 1011.5
20260506184048 32 341 0.0 6.4 0.00 0.00 0.00 56 1011.5
20260506183317 32 31 0.0 4.8 0.00 0.00 0.00 56 1011.6
20260506182818 32 342 1.6 8.0 0.00 0.00 0.00 55 1011.7
20260506182316 33 10 1.6 11.3 0.00 0.00 0.00 55 1011.7
20260506182046 33 339 1.6 11.3 0.00 0.00 0.00 55 1011.8
20260506181315 33 347 1.6 8.0 0.00 0.00 0.00 55 1011.9
20260506180814 33 339 1.6 8.0 0.00 0.00 0.00 56 1011.8
20260506180312 33 341 1.6 11.3 0.00 0.00 0.00 55 1011.9
20260506175802 33 335 1.6 11.3 0.00 0.00 0.00 55 1012.0
20260506175300 33 18 0.0 6.4 0.00 0.00 0.00 55 1012.0
20260506174759 33 353 1.6 14.5 0.00 0.00 0.00 56 1012.1
20260506174259 33 2 1.6 14.5 0.00 0.00 0.00 55 1012.1
20260506173800 33 27 3.2 17.7 0.00 0.00 0.00 56 1012.2
20260506173257 33 303 4.8 17.7 0.00 0.00 0.00 56 1012.3
20260506172300 33 314 3.2 16.1 0.00 0.00 0.00 56 1012.5
20260506172253 33 341 3.2 16.1 0.00 0.00 0.00 56 1012.5
20260506171519 33 299 1.6 14.5 0.00 0.00 0.00 57 1012.5
20260506170747 33 348 1.6 14.5 0.00 0.00 0.00 57 1012.6